Regional Weather Roundup
Issued by NWS

Home | Current Version | Previous Version | Text Only | Print | Product List | Glossary Off
Versions: 1 2 3 4 5 6 7 8 9 10 11 12 13 14 15 16 17 18 19 20 21 22 23 24 25 26 27 28 29 30 31 32 33 34 35 36 37 38 39 40 41 42 43 44 45 46 47 48 49 50

000
ASUS43 KFSD 030410
RWRSD

WEATHER ROUNDUP FOR SOUTH DAKOTA
NATIONAL WEATHER SERVICE SIOUX FALLS SD
1100 PM CDT WED SEP 02 2015

NOTE: "FAIR" INDICATES FEW OR NO CLOUDS BELOW 12,000 FEET WITH NO
SIGNIFICANT WEATHER AND/OR OBSTRUCTIONS TO VISIBILITY.


SDZ001>005-009-010-012>017-030500-
NORTHWEST AND NORTH CENTRAL SOUTH DAKOTA

CITY           SKY/WX    TMP DP  RH WIND       PRES   REMARKS
BUFFALO          N/A     74  49  41 E9        29.69F
FAITH            N/A     77  55  46 SE14      29.74F
MOBRIDGE       CLEAR     77  74  90 SE8       29.71F
$$

SDZ012>016-024>037-041>051-057-063-072>074-030500-
SOUTHWEST AND SOUTH CENTRAL SOUTH DAKOTA

CITY           SKY/WX    TMP DP  RH WIND       PRES   REMARKS
RAPID CTY ARPT CLEAR     73  50  44 SE6       29.81R
PIERRE         CLEAR     76  63  64 SE9       29.71S
CUSTER         CLEAR     65  34  31 CALM      30.01R
ELLSWORTH AFB  CLEAR     78  48  34 S7        29.80R
PHILIP         CLEAR     76  53  44 CALM      29.74R
PINE RIDGE     CLEAR     67  48  50 NW3       29.85R
WINNER         FAIR      86  54  33 S20       29.78R
$$

SDZ004>011-016>023-039-040-030500-
NORTHEAST SOUTH DAKOTA

CITY           SKY/WX    TMP DP  RH WIND       PRES   REMARKS
ABERDEEN       CLEAR     77  73  87 SE9       29.77S
WATERTOWN      CLEAR     76  72  87 SE10      29.84S
BROOKINGS      CLEAR     73  70  88 SE10      29.87S
SISSETON         N/A     73  72  96 S7        29.82S
$$

SDZ017-020-022-023-036>040-048>070-030500-
SOUTHEAST SOUTH DAKOTA

CITY           SKY/WX    TMP DP  RH WIND       PRES   REMARKS
SIOUX FALLS    PTCLDY    76  71  85 SE7       29.85R
HURON          CLEAR     77  73  87 SE10      29.77S
CHAMBERLAIN    CLEAR     75  68  80 SE8       29.76S
MITCHELL       CLEAR     76  73  91 SE9       29.79S
YANKTON        CLEAR     73  70  88 SE5       29.81S
$$

ABBREVIATIONS USED IN REMARKS
   TC - TEMPERATURE IN CELSIUS
  WCI - WIND CHILL INDEX
   HX - HEAT INDEX
  VSB - VISIBILITY




USA.gov is the U.S. government's official web portal to all federal, state and local government web resources and services.